Regional Weather Roundup
Issued by NWS

Home | Current Version | Previous Version | Graphics & Text | Print | Product List | Glossary On
Versions: 1 2 3 4 5 6 7 8 9 10 11 12 13 14 15 16 17 18 19 20 21 22 23 24 25 26 27 28 29 30 31 32 33 34 35 36 37 38 39 40 41 42 43 44 45 46 47 48 49 50
045
ASUS43 KLSX 102157
RWRMO

WEATHER SUMMARY FOR MISSOURI
NATIONAL WEATHER SERVICE SPRINGFIELD MO
400 PM CST WED FEB 10 2016

NOTE: "FAIR" INDICATES FEW OR NO CLOUDS BELOW 12,000 FEET WITH NO
       SIGNIFICANT WEATHER AND/OR OBSTRUCTIONS TO VISIBILITY.
       CURRENT SKY AND/OR WEATHER CONDITIONS ARE NOT AVAILABLE FOR
       CHILLICOTHE AND FARMINGTON.

MOZ001>031-035>038-043-044-053-054-102300-
...NORTHERN AND WESTERN MISSOURI...

CITY           SKY/WX    TMP DP  RH WIND       PRES   REMARKS
KANSAS CTY INT MOSUNNY   48  22  35 VRB5      29.92R
LEE`S SUMMIT   SUNNY     47  20  34 S5        29.92R
ST JOSEPH      SUNNY     47  20  34 SE5       29.92R
CHILLICOTHE      N/A     32  22  66 SE13      30.01R WCI  22

$$
MOZ066>068-077>081-088>096-101>105-102300-
...SOUTHWEST MISSOURI...

CITY           SKY/WX    TMP DP  RH WIND       PRES   REMARKS
SPRINGFIELD    SUNNY     50  19  29 SW12      29.94F

$$
MOZ032>034-039>042-045>050-055>058-069>072-102300-
...CENTRAL MISSOURI...

CITY           SKY/WX    TMP DP  RH WIND       PRES   REMARKS
COLUMBIA       NOT AVBL
JEFFERSON CITY CLOUDY    28  20  71 E10       30.06S WCI  19
ROLLA          CLOUDY    27  20  75 E12       30.01F WCI  17
SEDALIA        SUNNY     43  16  33 S7        29.98R

$$
MOZ051-052-059>065-102300-
...EAST CENTRAL MISSOURI...

CITY           SKY/WX    TMP DP  RH WIND       PRES   REMARKS
ST LOUIS INTL  LGT SNOW  23  16  74 S6        30.13R WCI  16

$$
MOZ072>076-082>087-097>100-106>115-102300-
...SOUTH CENTRAL AND SOUTHEAST MISSOURI...

CITY           SKY/WX    TMP DP  RH WIND       PRES   REMARKS
CAPE GIRARDEAU NOT AVBL
POPLAR BLUFF   CLOUDY    32  13  45 S7        30.13F WCI  26
WEST PLAINS    SUNNY     41  13  31 S10G20    30.02F

$$



USA.gov is the U.S. government's official web portal to all federal, state and local government web resources and services.